Theta_e
334 335 335 335 333 332 326 321 303 309 306 301 301 301 300 307 307 303 302 305 300 306 308 308 309 309 308 306 308 310 311 307 311 305 304 313 318 317 318 320 321 323 325 326 329 331 332 330 332 333 334 335 336 337 337 338 339 340 341 341 341 342 343 344 344 344 345 346 345 345 345 346 347 347 347 347 347 347 347 346 346 346 346 347 347 349 348 348 348 349 348 348 347 347 347 347 347
332 333 333 333 331 328 317 320 307 305 303 300 301 302 303 306 303 302 302 303 305 306 309 309 309 311 310 309 309 310 309 310 313 311 312 316 316 316 316 317 319 321 323 325 327 329 329 329 330 331 332 333 334 335 336 336 337 338 338 338 339 341 341 342 343 342 343 343 343 344 346 345 345 344 345 345 345 345 346 346 345 346 346 347 347 348 348 348 348 347 347 347 347 346 347 347 347
331 331 330 331 328 324 320 316 303 303 301 297 301 303 306 303 302 304 305 305 309 309 309 308 309 308 308 308 305 305 304 311 312 314 312 315 311 311 315 317 319 321 323 324 326 327 328 327 329 330 331 332 333 334 334 335 335 335 335 336 337 338 339 339 339 340 340 341 341 341 341 341 341 340 340 341 342 342 342 342 341 342 343 343 345 347 346 347 347 347 347 347 347 347 346 346 346
335 334 331 328 321 322 314 311 304 301 299 300 299 304 303 304 303 305 309 308 309 308 308 306 305 309 308 305 306 309 307 310 313 313 311 312 312 313 314 316 318 320 322 323 324 324 326 326 327 329 330 331 331 332 332 333 333 333 333 334 335 335 336 336 336 337 337 337 338 338 337 337 337 336 337 337 338 338 338 338 338 337 338 340 342 345 347 347 346 345 347 347 347 346 344 344 345
333 332 331 325 322 312 311 309 306 305 297 302 299 303 304 306 305 306 307 308 308 308 307 307 306 308 309 307 309 304 307 313 312 314 315 313 313 313 313 315 316 318 318 320 322 323 324 324 326 327 329 329 330 330 330 330 330 331 331 332 332 333 332 333 333 334 334 334 335 335 335 334 333 333 333 333 334 335 335 335 335 335 335 336 338 341 343 344 343 343 343 343 344 343 342 342 344
330 327 330 325 317 316 311 302 301 299 303 304 301 304 305 306 306 306 306 307 307 308 307 307 305 305 304 307 309 307 312 308 313 313 315 312 312 313 313 314 314 315 317 319 320 321 323 323 325 325 327 327 328 329 328 328 328 328 328 329 329 329 330 330 330 330 331 331 332 332 332 331 330 330 330 330 331 332 332 332 332 332 332 333 335 336 338 339 340 339 340 340 340 340 338 339 340
324 322 320 321 317 313 304 303 302 303 305 306 304 304 306 306 307 307 306 305 306 306 306 306 307 306 303 307 307 310 311 313 313 313 317 313 313 311 311 311 313 312 314 316 318 318 319 321 323 325 325 325 326 326 327 327 326 326 327 327 327 327 327 327 327 327 328 328 328 328 328 328 327 327 327 328 329 329 330 330 330 330 330 330 331 333 334 335 337 337 337 338 338 337 335 334 334
328 320 317 309 308 306 301 301 302 304 304 306 305 305 307 307 307 306 305 304 303 302 305 306 307 305 304 309 304 308 311 311 315 314 313 311 311 311 311 309 309 309 310 314 316 316 316 317 321 322 323 324 324 324 325 325 325 325 325 325 326 326 325 325 325 325 325 326 326 327 327 326 325 325 325 326 327 327 327 328 327 328 328 328 329 329 330 331 333 334 335 335 335 334 333 332 331
322 317 319 311 305 308 302 301 302 307 306 306 305 307 309 308 308 306 305 305 306 306 305 306 306 301 304 305 305 308 310 312 312 313 312 311 310 310 308 308 307 308 308 309 313 315 315 314 317 320 321 322 323 323 323 323 324 323 323 323 324 324 323 323 323 323 323 324 324 323 323 323 323 322 322 322 323 324 324 324 324 324 325 325 326 326 326 328 329 330 331 332 331 330 330 329 328
317 315 309 307 309 302 302 302 301 304 305 307 306 305 306 307 307 307 306 304 305 306 307 308 307 303 306 303 306 307 309 311 310 310 310 310 309 309 308 308 309 307 306 307 309 310 311 311 313 316 318 319 320 321 321 321 321 321 321 321 321 322 322 321 320 320 321 321 321 321 322 321 321 320 320 321 321 322 322 322 321 321 322 322 322 322 322 323 324 326 326 327 327 326 326 325 325
310 314 315 306 302 299 300 301 304 307 305 306 306 306 307 307 307 306 306 306 308 305 305 306 304 304 305 305 306 311 312 310 309 307 309 308 308 307 307 308 308 308 307 308 308 308 308 309 309 312 314 316 317 318 319 319 319 319 319 319 320 320 320 319 319 318 318 318 319 319 319 319 319 319 319 319 319 320 321 321 320 320 321 320 321 321 321 321 321 322 323 322 323 323 322 322 321
308 309 311 301 301 302 302 302 303 305 306 306 304 306 307 307 307 305 305 304 306 305 305 305 304 307 304 304 307 308 309 309 309 309 308 308 306 307 307 306 308 308 308 307 307 307 308 309 308 308 310 312 313 314 315 316 316 317 317 317 317 317 317 317 316 316 315 315 316 315 316 316 317 317 317 317 317 317 318 319 319 319 320 319 320 321 320 321 321 320 321 320 320 321 320 320 319
308 313 307 303 302 304 303 302 302 305 304 304 305 306 308 306 305 306 306 306 306 305 305 307 308 306 302 304 306 307 306 309 310 308 308 307 306 306 306 305 306 307 307 306 306 307 308 306 306 307 306 308 309 310 312 312 313 314 314 314 313 313 314 314 314 313 313 313 313 313 312 312 312 313 314 315 314 315 315 315 316 317 317 318 318 318 319 319 319 318 318 319 319 319 319 319 318
309 311 309 303 308 303 301 301 303 301 302 306 307 306 306 305 306 307 307 304 305 305 307 310 307 307 303 306 305 306 306 310 308 308 307 306 306 305 305 305 307 305 307 306 305 306 306 306 306 307 308 308 308 307 308 310 311 311 311 311 311 310 311 311 310 310 310 310 309 309 308 308 309 310 310 311 311 311 311 311 313 315 315 316 316 316 316 316 316 316 316 316 316 316 316 316 316
309 313 306 304 302 303 303 300 302 303 302 306 304 304 305 307 307 307 306 304 305 307 307 310 309 304 301 303 305 307 307 310 307 307 306 305 305 304 306 305 305 306 305 303 304 304 303 305 305 307 307 307 309 308 306 306 307 308 308 308 308 308 308 308 307 306 307 307 306 305 305 305 306 306 307 307 308 307 307 307 310 312 312 313 313 313 314 315 315 315 315 315 315 315 315 315 315
315 310 306 302 300 301 304 302 304 301 301 306 303 306 304 305 305 305 306 305 307 307 307 303 308 305 305 305 305 307 309 308 307 305 304 304 304 305 304 304 302 303 304 304 303 305 304 304 305 305 306 306 307 307 306 304 303 305 305 306 306 306 306 306 305 304 304 304 303 303 304 308 308 306 305 305 305 305 304 305 307 309 310 310 311 311 312 312 313 313 313 314 313 313 313 314 314
314 312 304 302 298 302 304 303 303 299 305 305 303 304 302 303 305 305 303 304 303 304 303 307 305 308 304 304 304 307 308 307 306 304 303 302 302 301 302 301 301 302 303 303 303 304 305 305 304 305 305 306 306 306 306 305 304 304 304 303 303 303 303 303 304 304 308 307 306 306 306 306 306 305 304 304 307 305 304 304 306 307 309 308 308 310 310 310 310 311 312 312 312 312 311 312 313
313 305 302 301 303 302 306 304 305 306 303 304 302 304 303 302 301 303 303 303 303 305 304 306 307 306 306 302 303 308 307 305 304 302 302 301 301 300 299 300 300 300 301 302 303 303 303 304 305 304 305 305 305 306 306 305 305 305 306 306 305 305 304 307 305 305 307 306 306 305 304 304 305 303 303 304 305 304 305 304 305 306 307 307 307 309 309 309 310 310 310 310 310 310 310 309 309
307 305 304 301 304 306 307 306 306 304 304 305 305 304 304 304 304 303 301 302 302 301 303 304 304 305 304 302 303 305 305 303 303 302 301 301 300 300 299 300 300 300 300 301 302 302 302 303 303 302 303 304 305 306 306 305 305 305 305 305 305 306 305 304 305 304 305 305 305 305 303 304 305 304 303 303 304 307 305 304 304 304 305 305 305 307 307 307 308 308 309 309 309 307 307 308 307
308 305 302 303 308 307 306 306 305 306 306 304 304 304 303 305 305 304 300 302 304 301 302 302 302 303 304 301 302 303 303 303 303 302 302 302 301 301 300 300 299 300 300 301 301 302 303 302 303 303 303 303 303 303 305 304 304 304 304 305 305 304 305 304 304 305 305 305 305 304 303 304 305 303 307 305 307 303 304 306 306 306 304 304 303 304 304 305 306 306 306 306 306 307 305 305 305
309 304 301 305 306 304 306 306 306 305 305 304 304 304 302 305 304 303 302 301 302 304 306 305 303 304 306 303 301 302 302 303 303 303 302 302 302 303 301 301 301 301 302 302 302 301 302 302 303 303 303 303 304 303 304 303 303 303 303 303 304 303 304 304 304 304 304 304 304 303 304 304 304 303 304 303 302 302 302 302 302 301 301 302 303 302 301 302 302 303 302 303 303 304 303 304 304
307 304 307 306 306 303 306 305 304 303 303 302 303 301 302 306 304 302 303 300 301 305 308 308 308 308 308 303 302 302 302 303 302 302 302 302 302 302 302 303 303 302 302 301 301 301 301 302 302 302 302 303 303 303 303 303 303 302 303 303 303 304 304 303 303 303 303 303 303 303 303 303 303 303 303 302 302 301 300 299 300 300 300 301 300 299 300 300 300 300 300 301 301 301 302 303 303
300 306 306 307 306 304 305 304 302 302 302 302 301 304 304 302 302 304 303 302 305 307 307 307 308 308 308 305 303 302 302 302 302 303 303 303 303 303 302 302 301 300 301 301 301 300 300 301 302 302 301 302 302 303 303 300 302 303 303 302 303 302 303 303 302 302 302 302 302 302 302 301 301 301 301 301 300 300 300 299 299 300 299 299 299 298 299 299 298 298 299 299 299 300 300 301 302
303 302 305 304 305 303 305 303 301 301 302 301 304 303 301 302 299 305 303 305 307 308 306 306 305 306 307 304 303 303 302 303 303 303 304 304 304 304 304 302 302 302 301 301 301 300 300 300 301 301 301 301 302 302 301 301 302 302 302 299 302 301 302 302 301 301 302 301 301 300 301 301 300 299 299 299 299 299 299 299 299 298 298 298 298 298 297 297 297 297 298 299 298 298 299 299 300
302 302 305 304 302 304 305 303 301 301 301 304 301 300 301 302 302 303 301 304 307 307 308 305 304 304 305 304 303 303 303 303 303 304 305 305 306 306 306 304 302 302 300 300 301 299 300 300 300 300 300 300 300 300 300 300 301 301 301 301 301 301 302 301 301 301 301 300 300 300 300 300 299 299 298 298 298 298 298 298 297 297 297 297 297 296 297 296 296 296 297 297 297 297 297 298 298
304 303 304 303 303 304 304 303 302 302 302 302 299 299 302 303 304 299 302 304 306 307 307 306 304 303 303 303 303 303 303 303 304 304 304 305 306 304 304 303 301 300 301 300 300 299 299 299 299 299 300 300 300 299 300 300 300 300 301 301 300 299 301 300 301 300 300 300 299 299 299 299 298 297 297 297 297 297 297 298 297 297 296 296 296 295 295 295 295 295 296 296 296 297 296 297 297
301 302 302 302 303 303 304 301 302 303 302 302 299 300 301 301 300 298 306 305 307 307 306 306 304 302 303 303 303 303 303 303 303 304 304 304 304 304 304 303 301 300 301 300 300 299 300 299 299 299 299 300 300 299 300 299 300 300 300 300 300 300 300 300 300 300 299 299 299 299 299 298 298 298 297 297 296 297 297 296 296 296 295 295 295 295 295 295 295 295 295 295 295 296 296 296 296
302 300 301 302 302 303 303 302 301 302 300 302 301 299 301 301 299 298 303 301 304 305 305 304 303 302 303 303 303 304 303 304 304 304 303 302 302 303 303 302 301 300 300 300 300 300 299 298 298 298 298 299 299 299 300 300 299 300 300 300 299 300 299 299 299 299 298 298 299 299 298 297 297 297 297 297 296 296 295 295 296 295 295 295 294 294 294 295 295 295 296 296 296 296 295 296 297
301 300 298 301 303 301 303 301 301 301 300 301 301 297 297 298 297 302 304 301 303 303 303 303 302 302 303 304 303 303 302 303 304 303 303 303 304 303 302 303 302 300 301 301 300 300 298 298 298 298 298 299 298 298 299 299 299 299 299 299 299 299 298 299 298 298 298 298 298 298 297 297 297 296 296 296 296 295 295 295 295 295 295 294 294 294 295 294 294 294 295 295 295 295 295 295 296
301 301 299 299 299 299 304 304 302 299 300 300 301 292 297 299 300 304 306 302 302 301 302 302 302 302 302 303 302 302 302 302 302 303 304 304 304 303 302 303 303 301 300 300 300 299 298 299 299 299 298 298 298 298 298 298 299 298 299 299 298 298 298 297 298 298 297 297 297 297 297 296 296 296 295 295 295 294 295 294 294 294 294 293 293 294 293 293 293 293 293 293 294 294 293 294 294
297 301 299 296 296 297 302 301 300 297 300 299 300 293 296 301 304 305 304 304 301 301 302 302 303 302 302 302 302 302 302 302 302 303 304 305 304 303 303 303 302 301 300 299 299 299 298 298 299 297 298 298 298 298 298 298 298 298 297 298 297 298 297 297 297 297 297 297 297 296 296 295 296 295 295 294 294 294 293 293 293 293 293 293 292 293 293 293 293 292 292 292 293 293 293 293 293
300 297 295 299 296 299 299 302 299 299 297 300 299 294 295 300 303 305 304 303 302 301 302 303 304 303 302 302 301 301 301 302 302 303 303 303 304 303 302 302 301 300 299 299 299 299 297 298 298 298 298 298 297 297 298 298 297 297 297 298 297 298 296 297 297 297 297 296 296 297 296 295 295 295 294 294 293 293 293 292 293 293 293 292 292 292 292 292 292 292 292 293 291 291 291 291 292
301 297 296 296 298 299 300 299 300 301 299 299 298 294 298 298 303 301 301 302 301 301 302 303 303 304 303 302 301 301 301 301 301 301 302 302 303 302 301 301 301 300 299 299 298 298 297 298 297 298 297 298 297 297 298 298 297 297 296 296 297 296 296 296 296 296 296 296 296 296 296 294 295 294 294 293 293 293 292 292 292 293 292 292 291 291 291 292 291 292 292 292 292 290 290 290 290
298 300 296 299 297 298 296 297 297 300 299 296 297 295 296 299 302 302 299 302 301 301 302 302 303 303 304 304 302 301 301 300 299 299 300 301 302 302 301 301 300 300 299 299 299 297 296 298 297 298 297 298 297 297 297 296 296 296 296 296 295 295 296 296 296 296 296 295 295 295 295 295 294 294 293 293 292 292 292 292 292 292 292 291 291 291 291 291 292 292 290 291 291 290 289 289 289
296 296 296 297 299 298 297 297 298 297 297 296 297 296 296 299 301 302 303 302 301 301 301 302 302 303 303 304 303 302 301 301 300 300 301 301 301 301 300 300 300 299 298 298 298 297 297 297 297 297 297 297 296 297 296 296 296 296 295 296 295 295 295 295 295 295 295 295 295 295 294 294 293 293 293 293 292 291 291 292 291 292 291 291 290 290 290 291 291 291 289 289 290 290 289 289 289
297 298 297 297 294 296 297 300 296 298 295 294 295 294 297 299 300 302 303 304 302 301 302 302 302 302 303 303 304 303 302 301 302 302 302 301 300 300 299 299 299 298 297 297 297 297 296 297 296 296 296 296 296 296 296 295 294 294 294 294 294 294 294 294 294 294 295 294 295 294 294 294 294 293 293 292 292 291 291 291 291 291 291 290 290 289 289 289 289 289 288 288 288 289 290 290 290
299 299 297 295 295 296 300 301 295 298 295 295 296 296 297 297 299 301 302 302 302 301 301 301 302 302 303 303 303 304 303 302 304 303 302 301 300 299 298 298 297 297 296 296 296 296 296 296 296 295 296 296 295 294 294 294 293 293 293 293 293 293 293 294 293 294 294 294 294 294 294 293 293 293 292 292 291 291 290 290 290 290 290 290 289 289 289 289 289 289 288 289 288 287 288 289 289
298 297 296 295 297 295 300 299 294 296 293 295 298 296 296 297 299 300 301 300 299 300 301 301 302 303 304 304 303 304 303 304 304 302 301 300 298 298 297 296 297 295 295 295 295 295 296 296 295 296 296 295 295 294 294 294 294 294 294 294 294 294 293 292 292 293 293 294 294 293 293 293 293 292 292 292 291 290 290 289 290 289 289 289 289 289 289 289 288 289 289 287 288 287 286 288 289
298 296 296 295 296 299 301 296 294 294 293 292 296 294 295 297 299 300 300 300 301 302 302 302 302 303 303 304 305 305 303 301 301 300 300 298 298 297 296 295 295 295 295 294 295 295 295 295 295 296 295 294 294 294 294 294 295 295 295 294 294 293 294 294 294 294 293 293 293 293 293 293 292 292 292 291 290 290 290 289 289 289 289 289 288 288 288 288 288 288 288 287 286 287 287 289 289
296 296 294 292 297 297 293 295 293 294 294 294 295 292 293 296 298 298 300 300 301 303 303 304 304 303 304 304 305 305 302 301 300 299 298 297 297 296 295 294 295 295 294 294 294 294 295 295 295 295 295 294 294 294 295 295 295 295 295 295 294 294 292 292 292 292 292 292 292 293 293 292 292 291 291 291 290 290 289 289 289 288 288 289 288 287 287 287 287 287 287 287 286 284 285 286 288
297 297 296 295 296 297 297 296 294 296 295 293 293 292 293 296 296 297 300 302 301 302 302 303 303 305 305 307 307 306 303 302 301 299 298 297 296 295 295 295 295 294 294 293 293 294 294 294 295 295 295 294 294 294 294 295 294 293 293 293 292 292 291 291 291 290 291 291 291 292 292 292 292 291 291 290 290 289 289 289 288 288 288 288 287 286 286 286 287 287 287 286 286 284 283 285 286
295 299 297 298 298 297 298 298 294 293 293 293 293 288 290 296 298 298 300 298 297 299 299 299 300 302 303 303 304 305 305 305 303 300 298 297 296 296 295 295 294 294 293 294 294 294 294 294 295 295 295 294 294 294 294 294 292 291 290 289 288 288 288 288 288 289 290 290 290 291 292 292 291 290 290 290 289 289 288 288 288 288 287 287 287 287 286 286 286 286 287 286 285 286 284 284 283
292 296 300 299 298 297 297 296 294 289 288 293 293 288 285 295 294 297 299 298 298 300 300 300 301 301 303 306 305 303 303 303 304 302 299 297 296 296 295 294 294 293 293 294 294 294 294 295 295 294 294 294 294 294 294 293 292 291 291 290 290 290 289 291 292 292 292 292 292 291 291 291 291 290 290 289 289 288 288 288 287 287 287 286 287 286 285 286 286 286 287 286 285 286 285 282 283
293 295 296 296 296 296 295 295 293 291 296 296 293 292 286 286 293 297 298 296 297 298 298 300 302 303 302 303 306 303 303 303 302 301 299 298 297 296 295 295 294 293 294 294 294 294 294 294 294 294 294 294 294 294 293 292 292 291 291 291 291 291 291 291 292 292 292 291 290 290 290 290 290 290 289 289 289 288 287 287 287 286 286 286 286 285 285 286 286 286 286 286 286 285 285 283 283
295 293 297 295 295 295 295 294 292 292 290 287 291 294 287 287 293 297 297 294 295 295 297 298 300 302 304 305 306 304 304 304 303 301 300 298 297 296 296 295 295 294 294 293 293 293 294 294 294 294 294 293 294 293 293 292 292 291 291 291 291 292 292 292 292 291 290 290 289 290 289 289 289 289 289 288 288 287 287 286 286 286 285 285 285 286 285 285 285 285 285 284 284 284 284 284 283
294 295 295 295 295 294 294 292 291 290 287 284 289 292 286 287 294 294 296 295 294 295 298 299 301 302 304 306 306 304 304 303 303 302 301 300 298 297 297 296 295 294 294 295 294 294 294 294 293 293 293 293 293 293 292 292 292 292 291 291 291 290 291 291 291 290 289 289 289 289 289 288 288 288 288 288 287 287 286 286 286 285 285 285 285 285 285 284 284 285 285 284 284 284 284 284 283
295 296 295 294 293 292 291 292 290 288 283 286 291 292 290 284 292 293 292 293 296 298 299 300 302 304 304 307 306 304 302 302 301 301 301 300 299 298 297 295 295 294 294 294 294 293 293 293 293 293 293 293 293 292 292 291 291 291 291 291 291 290 290 290 289 288 288 288 288 288 288 288 288 287 287 287 287 286 286 286 285 285 285 284 284 284 284 284 284 284 284 284 284 283 283 283 283
296 293 293 293 291 291 289 288 289 284 283 290 293 292 292 283 288 294 296 299 299 299 298 300 301 302 305 307 304 303 302 301 300 299 299 299 298 297 296 295 294 293 293 293 293 293 293 293 293 292 292 292 292 292 291 291 290 291 291 291 291 291 290 290 289 288 288 288 288 287 288 287 287 287 286 286 286 286 285 285 285 284 284 284 284 284 284 284 284 284 283 283 283 283 283 283 283
294 293 292 287 286 287 284 285 282 283 283 288 291 294 289 287 291 296 297 298 299 300 300 300 301 301 304 308 305 303 302 300 298 297 297 296 296 295 294 294 294 292 292 292 292 292 293 293 292 291 291 292 291 291 290 291 290 290 290 290 290 291 290 290 289 288 289 288 288 287 286 286 286 286 285 285 285 285 285 284 283 283 283 283 283 283 283 283 283 282 282 282 282 282 282 282 281
291 290 288 286 283 283 280 284 287 287 289 290 288 292 286 291 293 297 297 299 300 300 301 303 302 301 303 309 306 302 300 298 297 296 296 295 295 295 294 294 293 292 292 292 292 292 292 292 292 291 291 291 291 291 290 290 290 290 290 290 290 290 289 289 289 288 288 288 287 286 286 285 285 285 285 284 284 284 284 283 283 282 283 283 283 282 282 282 282 282 282 281 281 282 282 282 281
290 295 292 289 288 284 280 284 282 284 287 286 288 284 283 284 290 298 298 300 301 301 301 303 303 304 305 299 302 300 298 297 297 296 295 295 295 294 294 293 293 292 292 292 291 292 292 291 291 290 290 291 291 290 290 289 289 289 289 290 290 289 289 288 288 288 287 287 286 286 285 285 284 284 284 284 284 283 282 282 282 282 282 282 282 281 282 281 281 281 281 281 281 281 281 281 281
292 294 296 290 288 293 285 287 286 285 284 284 284 283 290 290 297 299 301 301 300 301 301 302 302 303 303 297 298 297 296 296 296 295 295 294 295 294 293 293 293 292 292 291 291 291 291 291 291 290 290 290 290 289 289 289 289 289 289 289 289 288 288 288 287 287 286 286 286 285 284 284 284 283 283 283 283 282 281 281 281 281 281 281 281 281 280 280 280 280 279 280 279 281 280 280 280
292 292 287 291 297 294 289 288 287 283 284 282 288 287 290 295 296 298 298 298 298 299 300 300 300 301 301 299 299 297 296 295 294 294 294 294 294 293 293 292 292 291 291 290 290 291 291 290 290 290 290 290 289 289 289 289 289 288 288 288 288 287 287 286 286 285 285 285 285 284 283 283 283 282 282 282 281 281 281 280 280 280 280 280 280 280 279 279 279 279 279 279 278 279 279 279 280
292 286 292 296 298 296 289 283 286 284 281 283 289 286 287 289 285 295 296 295 296 297 297 298 299 299 299 299 299 299 297 296 295 294 294 294 294 293 293 292 292 291 290 290 290 291 291 290 290 289 289 289 288 288 288 288 288 287 287 287 287 286 285 285 285 284 284 283 283 282 282 282 281 281 281 281 281 280 279 280 279 279 279 279 279 279 279 278 278 278 278 278 278 279 278 279 279
292 291 295 289 285 283 288 286 278 279 279 282 286 288 288 290 289 291 292 292 294 296 297 296 297 298 299 299 299 300 299 297 296 294 294 293 293 292 292 291 291 290 290 290 290 290 290 290 290 289 289 289 288 288 288 288 287 287 286 286 285 285 285 284 284 284 283 282 281 281 281 281 281 281 280 280 279 279 279 279 278 278 278 278 278 278 278 278 278 277 277 278 278 278 278 277 278
292 293 291 294 289 288 286 286 286 285 280 281 281 285 284 295 294 294 293 294 295 296 296 296 297 299 298 298 298 298 299 298 297 296 295 293 292 292 291 290 289 289 289 289 289 289 288 289 289 289 289 288 288 287 287 286 286 286 285 285 284 284 284 283 283 282 282 281 281 281 281 280 280 280 279 279 278 278 278 277 277 277 277 277 277 277 277 277 277 276 276 276 277 277 277 276 277
286 286 286 289 287 290 289 289 287 285 282 282 281 281 286 294 297 296 295 296 297 297 297 298 298 298 298 298 298 298 299 299 298 297 296 294 292 291 290 290 290 289 289 288 288 288 288 288 288 288 287 287 286 286 286 286 285 285 284 283 283 283 282 282 282 281 281 280 280 280 280 280 279 279 279 278 277 277 277 277 277 277 277 276 276 276 276 276 276 275 275 276 276 276 275 275 276
291 288 287 288 286 284 282 281 290 286 285 281 281 280 287 295 298 296 296 297 298 299 298 300 299 297 297 298 298 298 299 298 298 297 297 295 292 291 290 289 289 288 287 287 287 287 287 287 287 287 287 286 286 285 285 285 284 284 283 282 282 282 281 281 280 280 280 280 279 279 279 279 278 278 278 277 277 277 277 276 276 276 276 275 275 275 275 275 274 274 274 274 274 274 274 273 274
Wind_Speed
4 5 3 4 4 4 4 4 5 5 5 6 1 3 4 3 2 4 6 5 5 4 4 3 1 4 5 1 5 6 5 6 5 4 1 2 4 4 3 3 3 4 4 4 4 4 8 11 10 10 10 10 10 10 11 12 12 12 13 13 13 12 12 12 12 11 13 14 14 13 14 15 15 15 15 16 15 15 15 15 14 13 13 12 11 11 10 10 10 9 10 9 9 8 8 9 9
5 3 3 3 3 3 3 1 5 4 5 5 3 2 6 5 4 6 7 8 1 6 5 3 4 4 4 3 5 5 4 8 6 5 4 4 5 4 4 2 4 5 4 4 4 5 7 10 11 10 9 9 10 11 12 12 11 12 13 13 12 12 12 12 13 13 15 15 14 16 17 17 17 17 17 16 16 16 16 17 17 16 16 15 15 13 12 12 11 11 11 10 11 12 12 11 10
3 4 3 4 4 4 4 3 5 5 5 7 6 2 6 6 6 4 5 6 8 7 6 3 2 1 3 2 6 8 2 2 7 8 5 7 7 5 4 4 3 5 6 4 4 6 6 9 10 10 9 10 11 11 12 12 12 13 13 13 12 12 13 13 13 14 14 14 14 14 15 15 15 15 15 15 15 16 16 16 16 16 17 16 16 16 14 13 13 13 12 12 12 14 14 13 12
4 4 4 2 3 2 4 4 7 7 7 4 2 7 6 4 5 4 9 10 8 7 6 5 5 3 4 11 6 5 6 3 4 6 5 7 3 7 6 5 3 4 5 3 4 7 8 9 10 10 10 11 11 12 12 12 13 13 13 13 13 12 13 13 14 14 14 14 14 14 15 15 15 15 15 15 16 15 15 15 15 15 16 16 16 17 16 16 15 16 17 16 15 16 15 15 14
4 3 4 4 5 5 4 5 6 5 7 4 3 5 6 4 5 7 6 6 7 4 6 5 4 3 3 6 5 3 4 7 5 2 6 6 6 6 6 4 4 5 4 4 5 6 8 10 10 10 11 11 12 12 12 12 13 13 13 13 13 14 14 14 14 14 14 15 15 15 15 15 15 16 16 16 16 15 15 15 15 15 16 16 16 16 17 17 17 17 16 16 16 16 16 16 16
4 3 3 4 4 4 3 5 6 7 5 3 5 4 5 5 5 7 7 6 5 4 1 6 3 3 4 5 0 2 2 2 5 4 5 6 8 7 6 5 4 5 5 5 6 6 7 10 10 10 10 11 11 12 12 12 13 13 13 13 13 13 14 14 14 14 14 14 14 14 15 14 15 15 15 15 15 15 15 15 15 15 15 15 15 15 15 16 16 16 15 16 15 15 14 15 16
2 4 3 4 4 3 5 6 7 6 5 3 2 3 4 5 5 9 8 6 3 2 3 5 2 1 6 4 2 1 4 3 4 4 2 9 8 6 6 5 5 6 5 5 6 7 9 10 10 10 10 11 11 12 12 12 12 13 13 13 13 13 13 14 14 14 14 14 14 14 14 14 14 14 14 14 14 14 15 15 15 15 15 15 15 15 15 15 15 15 16 16 16 16 15 15 16
4 4 3 5 5 4 7 8 8 6 3 4 3 1 2 5 6 7 8 7 6 5 8 4 3 6 1 3 3 4 4 4 7 8 10 8 8 6 4 5 5 6 6 5 6 6 9 11 10 10 10 10 11 11 11 12 12 12 13 13 13 13 13 13 13 13 13 13 13 14 14 14 14 14 14 14 14 14 14 14 15 15 15 15 15 15 15 15 15 15 15 15 16 15 16 16 16
4 6 1 4 7 5 6 8 7 1 1 3 2 1 5 2 7 6 8 6 6 6 8 9 7 5 2 4 5 5 5 6 6 8 8 9 8 7 4 5 5 5 6 5 6 6 6 9 9 10 10 10 10 11 11 12 12 12 12 12 13 13 13 13 13 13 13 13 14 14 14 14 14 14 14 14 14 14 14 14 14 14 14 14 14 15 15 15 15 15 15 15 15 15 15 15 15
4 4 3 5 5 7 7 6 7 1 2 3 2 4 6 3 7 7 7 8 5 6 4 7 8 10 3 5 3 5 6 9 9 8 8 9 9 7 6 5 6 6 6 6 6 6 5 8 9 10 10 10 10 11 11 12 12 12 12 12 12 13 13 13 13 13 13 14 14 14 14 14 14 14 14 13 13 13 13 13 13 13 13 13 13 13 13 13 14 14 14 14 14 14 14 14 14
5 5 3 5 7 7 7 6 3 4 5 4 4 4 5 5 7 8 7 8 6 5 7 5 6 12 10 8 2 4 10 11 11 11 10 10 9 8 7 6 5 5 6 6 5 5 6 6 9 9 9 10 10 11 11 11 12 12 12 12 12 12 13 13 13 13 13 14 14 14 14 14 14 14 14 14 13 13 13 13 13 13 13 13 13 13 13 13 13 13 14 14 14 13 13 13 13
5 6 4 6 7 6 5 6 6 2 3 3 6 8 5 8 7 8 10 10 9 7 7 11 1 3 10 8 3 5 11 11 10 10 10 9 8 8 7 6 5 6 6 6 5 5 5 5 5 7 8 9 10 10 11 11 11 12 12 12 12 12 12 12 13 13 13 14 14 14 14 14 14 14 14 14 14 13 14 14 13 13 13 13 13 13 13 13 13 13 13 14 14 14 14 14 14
6 4 5 7 7 6 6 6 5 4 6 7 6 7 7 9 11 11 10 9 8 9 10 13 2 2 5 5 5 7 9 11 10 12 11 9 8 6 5 6 6 6 5 5 5 5 4 4 5 5 6 9 10 11 11 11 11 12 12 12 12 12 12 12 12 12 13 13 13 13 13 13 13 14 14 14 14 14 14 14 14 13 13 13 13 13 13 13 13 13 13 13 13 13 13 14 15
5 3 5 7 2 8 8 7 7 7 6 2 4 9 8 8 10 9 7 10 11 11 3 9 4 2 10 6 5 6 8 13 12 12 10 10 8 7 7 6 6 6 6 5 5 5 4 3 4 5 5 5 7 9 10 11 10 11 12 12 12 11 12 12 12 12 12 11 11 10 11 11 13 12 13 13 14 15 14 14 15 15 14 14 14 13 13 12 12 12 12 12 12 12 12 12 12
5 1 4 6 8 6 6 7 5 4 5 7 5 7 7 7 3 10 10 10 8 7 6 2 6 3 4 9 4 5 11 15 13 12 11 9 9 8 7 6 6 6 6 6 5 5 5 5 5 4 3 4 4 4 5 7 10 10 11 11 10 10 11 11 11 11 10 10 9 8 6 7 8 10 8 10 10 13 12 11 13 13 13 14 14 13 14 14 14 13 13 13 12 12 12 11 11
4 3 4 6 8 5 0 4 2 5 5 5 5 4 7 5 2 6 5 5 2 1 6 6 8 7 3 4 5 3 15 15 13 12 11 11 9 7 7 7 7 6 5 5 6 5 5 5 4 4 4 3 4 5 5 6 8 9 9 9 9 9 9 8 8 7 7 7 5 3 2 3 5 7 7 6 8 8 11 9 10 10 11 11 12 10 10 11 12 13 13 14 14 14 14 12 9
3 3 5 6 9 6 2 4 2 5 3 3 6 6 8 8 6 4 5 3 7 5 7 6 9 5 5 2 5 6 14 14 13 13 12 10 8 7 7 7 7 7 5 7 7 6 6 6 6 4 4 5 5 5 5 4 4 6 7 7 7 7 6 6 5 5 3 5 4 3 4 5 5 5 7 6 6 6 8 9 11 11 11 11 13 10 10 10 12 10 11 12 13 13 13 14 8
3 5 6 7 7 8 2 5 5 3 8 3 6 8 8 8 6 5 1 7 9 9 8 9 7 8 2 7 4 8 13 14 14 15 12 10 9 9 9 9 9 8 8 7 8 8 7 6 6 6 5 5 5 4 3 3 4 3 4 4 3 3 4 3 5 4 5 5 4 4 5 5 4 5 6 7 5 6 7 7 10 11 12 12 15 13 11 11 14 12 11 13 13 10 12 6 6
5 5 5 8 6 3 2 4 6 5 6 2 3 6 8 8 8 7 7 9 11 13 14 10 12 11 8 9 8 11 13 13 14 15 15 15 12 13 11 9 10 10 9 8 8 10 7 6 7 6 6 6 6 5 3 3 4 3 4 3 3 3 3 4 4 4 5 5 4 4 4 4 4 4 5 4 3 5 4 3 8 8 10 9 13 11 11 11 14 11 12 13 13 11 7 6 6
8 5 7 8 3 3 2 2 6 5 5 5 4 5 7 6 2 8 7 11 11 16 12 12 15 15 16 13 12 13 14 14 15 16 16 16 14 13 12 12 11 11 10 9 8 8 8 7 7 6 6 6 5 5 4 4 4 4 3 2 2 2 2 2 3 3 4 4 4 4 4 4 4 4 2 1 3 5 5 5 5 6 10 8 13 8 9 10 12 10 10 11 8 6 6 6 7
3 5 7 5 4 5 4 3 4 3 2 7 6 1 5 7 6 7 6 9 15 15 14 13 15 17 15 16 15 14 15 15 16 16 16 16 15 12 12 11 11 10 9 9 8 9 10 8 7 6 6 6 5 4 4 4 4 3 3 2 2 2 1 1 2 2 3 3 3 3 3 3 3 4 5 5 5 5 6 6 6 6 6 6 9 6 6 7 7 6 6 7 6 6 6 6 6
2 8 9 6 2 6 2 0 4 0 1 4 6 5 7 1 5 10 11 12 12 7 7 15 15 12 13 17 16 15 16 16 17 17 18 18 18 16 12 11 10 9 9 9 10 9 10 9 8 7 7 6 6 5 5 4 4 4 4 3 3 2 2 1 1 1 2 2 3 2 2 3 3 3 4 5 5 5 5 6 5 5 6 6 7 6 6 7 7 6 7 7 6 6 7 7 7
7 10 12 7 6 8 2 2 2 1 4 7 7 7 1 6 8 10 14 18 15 2 2 4 2 3 1 17 15 15 17 18 18 19 19 18 18 17 15 12 12 11 10 10 9 9 10 10 10 8 7 7 7 5 4 5 4 3 3 3 3 3 2 2 2 2 3 3 2 2 2 3 3 3 4 4 4 4 4 5 5 5 6 5 6 6 7 7 7 6 7 7 7 7 7 7 7
8 8 2 6 4 8 2 2 4 3 5 8 5 4 7 8 13 9 16 20 19 12 4 3 3 3 7 12 16 17 18 19 20 20 20 20 19 19 16 14 12 10 9 10 10 10 10 11 11 10 8 8 7 6 6 5 4 4 3 3 2 2 2 2 2 2 3 3 3 3 2 2 2 3 3 4 4 4 4 5 5 5 5 5 6 6 6 7 7 7 7 7 8 7 8 8 7
9 9 8 3 1 8 6 3 4 4 7 6 2 8 13 11 12 7 18 17 15 16 8 6 6 6 8 11 14 15 16 16 17 17 15 14 15 15 14 11 12 10 11 12 10 10 11 11 12 11 9 9 7 7 6 5 5 4 4 4 3 4 2 2 2 3 2 3 3 3 2 2 2 3 3 4 3 4 4 5 5 5 5 5 6 6 6 7 7 7 6 7 7 7 7 7 7
10 10 6 7 6 6 5 6 7 8 4 5 6 13 12 13 5 15 23 20 16 14 15 11 8 9 11 13 14 15 15 17 16 16 17 14 13 16 17 14 12 13 12 12 11 10 11 11 12 12 10 9 8 7 6 5 5 5 5 4 4 4 3 3 3 2 2 3 3 3 3 3 3 3 4 4 4 4 4 4 5 5 5 5 5 6 6 6 7 6 6 7 7 7 7 7 7
3 7 7 9 10 7 7 10 10 6 7 6 10 12 11 3 2 13 9 7 8 14 14 12 10 12 13 12 12 14 15 17 18 15 13 14 14 16 17 15 15 14 12 14 11 10 10 12 11 11 10 9 8 7 6 6 6 5 5 4 4 3 4 4 3 3 2 3 3 3 3 4 3 4 4 4 4 4 4 4 4 4 4 5 5 5 5 6 6 6 6 6 6 7 6 7 7
6 6 10 13 14 13 10 9 11 5 8 12 10 12 11 7 6 19 8 3 4 9 10 11 11 11 11 13 13 12 13 14 13 14 18 18 15 15 17 16 17 14 14 14 11 10 11 13 12 11 10 9 8 8 6 6 6 5 5 4 4 4 4 3 3 3 3 3 3 3 3 4 3 3 3 2 3 3 3 4 4 4 5 4 5 5 6 6 6 6 6 6 7 6 7 6 6
4 6 10 12 11 11 13 14 11 11 6 7 4 9 14 13 13 24 16 8 8 9 10 11 12 11 11 11 12 12 13 13 13 14 17 17 14 13 18 17 15 15 11 13 12 12 13 13 11 11 10 10 9 8 7 6 5 5 5 4 4 4 3 3 3 2 3 3 3 3 4 3 2 3 2 3 3 3 4 4 4 4 4 5 6 6 7 6 6 6 6 6 6 6 7 6 6
5 9 9 12 12 15 16 10 5 8 5 7 5 8 12 16 24 20 8 10 9 8 11 12 11 11 11 12 11 12 11 12 15 16 15 15 15 15 17 16 16 14 11 11 13 13 11 8 8 8 10 10 10 8 7 6 6 5 5 4 4 5 4 3 3 3 3 3 4 4 3 3 3 3 3 3 4 4 4 4 4 4 4 6 6 6 6 6 6 6 7 7 7 7 7 7 7
6 2 2 8 9 12 8 8 10 8 5 8 5 10 15 11 13 16 10 10 11 11 11 12 12 11 11 11 11 12 13 14 16 17 16 16 14 13 16 15 17 16 11 12 15 14 13 11 8 8 10 10 10 8 8 7 6 5 5 4 5 4 4 3 3 3 3 3 4 4 3 3 3 3 3 3 3 3 3 3 4 4 5 6 5 5 6 6 6 6 7 7 7 7 7 7 8
7 6 9 8 9 8 8 7 12 10 4 8 8 9 14 18 13 8 9 10 9 10 11 11 12 12 12 12 12 12 13 14 15 16 16 16 16 13 15 17 16 16 15 13 13 13 13 12 11 9 11 11 10 8 8 6 6 6 5 5 5 4 4 3 3 3 3 3 3 3 4 3 3 3 2 2 1 2 2 3 3 4 5 5 5 6 5 6 6 6 7 7 8 8 8 8 8
9 9 11 12 10 10 8 11 9 6 7 8 14 9 8 12 6 5 5 8 8 9 11 12 15 16 14 13 12 12 12 13 14 16 16 16 15 13 13 16 16 17 15 14 14 14 14 13 12 11 13 12 11 10 8 7 7 6 5 5 5 5 4 4 3 3 3 3 3 3 4 3 3 3 2 1 1 1 2 3 3 4 5 5 5 5 5 5 6 6 7 7 7 8 9 10 9
9 10 10 10 12 10 10 6 6 7 8 8 13 12 16 16 14 5 7 8 10 11 15 17 17 17 16 13 13 13 14 14 16 16 18 17 13 15 13 14 15 16 14 14 15 15 14 13 12 11 11 11 10 10 9 8 7 6 5 5 5 5 4 3 4 3 3 3 3 3 4 2 3 3 2 1 1 1 2 2 4 4 4 5 5 5 6 6 6 6 7 7 8 8 8 9 10
9 10 9 10 11 13 15 11 7 8 8 11 11 16 19 19 17 19 14 11 13 15 16 18 19 19 16 15 14 15 14 15 15 14 17 16 15 14 13 14 14 15 13 15 14 14 12 12 11 11 12 11 10 10 9 8 7 6 5 5 5 4 4 4 3 3 3 3 3 4 3 3 3 3 1 0 1 2 2 3 3 4 4 5 5 6 6 6 6 6 8 9 8 8 8 9 10
16 14 12 12 12 12 12 5 7 10 9 10 14 16 17 18 17 18 16 16 15 14 15 17 19 18 16 16 16 14 13 15 11 13 14 13 13 14 13 13 13 14 13 14 15 14 14 12 11 11 11 11 10 9 8 8 7 7 6 6 5 5 5 5 4 4 4 3 4 4 4 2 2 2 1 1 1 2 3 3 4 4 4 4 5 6 6 6 7 9 9 9 9 8 8 8 8
12 9 10 15 16 18 16 12 5 4 6 13 16 18 19 20 19 17 18 17 17 19 19 19 18 15 14 14 15 15 13 12 9 11 13 15 14 13 12 12 13 14 14 15 16 15 15 13 13 13 12 12 10 10 9 9 8 7 7 7 6 6 6 5 5 5 4 4 5 4 3 2 2 2 0 0 1 2 3 3 4 4 4 4 5 5 6 8 8 7 8 7 9 9 8 7 8
12 14 14 14 13 16 13 7 7 5 4 10 12 16 18 19 17 17 18 18 21 20 22 22 19 18 14 15 15 14 10 5 9 10 11 13 12 14 13 12 14 16 15 16 16 16 15 14 14 13 12 12 11 10 9 9 8 7 7 7 6 6 6 6 5 5 5 4 4 4 3 3 2 1 1 0 1 2 3 4 4 4 4 4 5 6 7 8 8 7 7 7 6 8 8 8 7
12 10 11 11 14 13 16 4 5 4 4 11 11 15 17 18 17 18 19 21 18 18 21 20 17 16 14 14 13 10 8 8 10 11 12 12 13 14 13 12 13 15 15 16 15 15 15 14 13 13 12 12 11 11 9 9 8 7 7 7 7 6 4 3 3 4 4 4 4 4 3 3 3 2 2 1 1 2 3 4 4 4 4 4 5 6 7 8 7 8 7 7 8 7 8 7 6
10 9 8 12 11 6 7 4 2 6 5 8 11 15 18 20 20 23 24 21 19 17 17 18 16 15 16 15 9 8 10 9 11 12 13 12 13 13 12 12 12 13 13 14 15 16 13 13 13 13 13 12 11 11 9 9 8 7 5 6 4 4 5 4 3 3 3 4 4 4 4 3 3 3 2 2 3 3 4 4 4 4 4 4 4 6 7 8 7 7 6 7 7 9 6 7 5
10 12 12 13 11 12 10 6 2 7 12 4 9 13 15 14 14 13 16 17 13 14 11 13 14 12 14 11 7 7 10 10 10 12 13 13 14 15 15 13 12 13 14 14 15 15 11 15 14 15 12 12 11 11 11 10 9 8 6 5 4 3 2 3 4 4 5 5 4 5 5 4 4 3 3 3 3 4 4 4 4 4 4 5 4 6 7 7 7 7 7 7 7 7 9 7 6
10 13 17 16 15 15 15 5 8 7 11 5 4 12 12 9 10 11 5 5 7 8 8 13 14 12 10 12 10 9 7 8 10 13 14 14 14 13 13 14 14 13 14 14 13 14 13 14 14 14 11 12 11 13 12 10 9 9 9 8 7 6 6 7 7 7 6 6 6 4 4 4 4 3 3 3 4 4 4 4 4 4 5 5 5 6 7 7 8 7 6 6 8 8 8 8 7
9 7 5 15 16 15 12 10 5 7 8 3 5 6 16 7 7 8 5 7 8 7 8 11 9 10 10 9 7 10 10 9 8 10 12 13 13 13 14 15 15 15 14 13 13 14 15 14 14 15 12 11 11 12 14 10 10 9 10 9 8 8 7 6 6 5 5 5 4 4 3 3 4 4 4 4 4 4 4 4 4 4 5 5 6 6 7 8 7 7 6 6 7 7 7 8 8
9 4 3 1 5 8 10 7 7 12 10 8 6 5 17 14 8 8 10 11 7 8 12 15 11 9 11 12 7 10 10 10 10 11 12 13 14 15 16 16 15 15 14 13 13 14 16 15 16 16 12 12 11 12 14 11 10 10 10 9 8 7 7 6 7 5 4 4 4 4 3 3 4 4 4 5 5 5 4 4 4 5 5 6 6 7 8 8 7 6 7 8 8 7 7 7 8
2 2 3 2 1 4 1 4 7 8 9 9 6 8 10 13 5 17 15 12 12 13 15 16 16 15 11 11 7 9 10 11 11 11 13 14 15 15 14 14 14 14 14 14 14 14 14 14 15 15 14 13 12 14 13 12 10 10 9 8 8 6 6 5 5 5 5 4 4 4 3 3 3 4 5 4 5 5 4 4 4 5 5 6 6 7 8 8 8 8 9 8 8 8 7 8 8
3 4 7 6 4 3 2 4 5 8 7 14 7 11 7 23 4 9 13 14 13 14 15 16 16 14 10 7 7 8 8 9 10 11 11 12 12 13 13 12 14 13 13 13 13 13 14 14 16 17 16 13 12 14 13 13 12 10 10 10 10 8 7 6 5 6 5 5 5 5 4 4 4 5 5 5 5 5 4 4 5 5 6 7 7 8 9 9 9 9 9 9 8 9 7 8 8
8 4 3 2 1 3 2 4 4 5 13 15 13 17 12 19 2 10 10 9 13 12 10 11 11 9 9 7 8 7 8 9 8 9 10 11 11 11 12 14 14 13 12 14 13 14 14 15 16 17 17 13 13 15 14 14 13 11 10 11 11 10 9 8 7 7 6 6 5 5 5 5 5 5 4 5 5 5 4 5 5 5 6 7 8 8 8 7 7 7 7 9 9 10 8 9 10
5 3 4 2 5 2 4 3 3 5 16 6 16 18 20 14 4 7 12 13 16 14 9 10 10 8 7 7 7 9 9 9 9 9 9 11 11 11 12 13 14 15 13 14 13 14 14 15 15 18 17 16 14 14 15 14 13 12 10 11 11 10 10 8 8 8 8 7 6 6 5 5 5 5 4 4 4 4 3 3 4 5 6 7 8 7 6 7 7 7 7 7 7 8 9 9 9
4 5 4 5 4 1 5 4 5 10 12 5 4 12 11 23 18 4 5 8 13 10 7 8 8 8 6 5 8 8 8 9 9 8 8 9 11 12 14 14 14 16 15 16 16 14 14 15 17 18 18 17 15 15 16 15 13 12 11 11 10 9 10 9 8 8 7 7 6 6 6 5 5 4 4 4 3 3 3 3 4 5 5 6 6 6 7 8 8 7 7 8 9 9 8 9 9
10 10 9 5 8 8 9 8 8 10 7 4 6 2 13 9 10 15 19 12 12 12 9 8 9 8 7 3 7 7 6 8 8 8 8 10 10 11 12 13 14 13 15 16 16 15 14 14 17 18 18 17 14 15 16 15 14 13 12 11 10 9 10 9 8 8 7 6 6 6 6 5 4 4 3 3 2 2 3 4 5 6 7 7 7 7 8 8 8 7 8 8 9 9 9 10 10
14 10 10 10 7 3 6 7 9 10 6 2 3 2 5 2 2 14 21 21 16 11 9 10 10 7 2 4 3 5 5 6 7 8 9 10 11 12 12 12 12 13 14 15 14 15 14 14 16 18 17 17 16 16 14 15 13 13 12 11 10 9 9 8 8 7 8 7 6 6 5 4 4 4 4 3 3 3 4 5 6 7 7 7 7 7 7 7 7 7 7 8 8 8 9 9 10
9 8 7 7 12 8 13 6 5 4 7 10 6 7 4 7 5 4 5 13 15 10 13 10 10 9 5 3 5 6 6 6 7 8 8 9 10 11 9 11 11 11 14 13 14 14 14 15 17 19 19 17 16 16 15 15 14 12 13 13 12 11 9 8 8 7 7 7 7 6 6 5 4 4 3 3 3 4 5 5 6 7 7 7 7 8 8 7 7 8 8 8 9 7 9 11 10
7 9 9 9 5 6 7 9 1 2 3 16 4 9 13 10 17 12 8 12 14 15 14 11 12 12 8 8 8 8 8 8 7 8 8 10 10 10 10 11 10 10 12 14 16 16 17 15 16 18 18 15 16 16 15 14 13 13 14 13 12 11 11 11 9 10 9 8 7 6 6 5 5 4 3 3 4 4 5 6 6 7 7 8 8 8 8 8 8 8 8 9 9 9 9 10 10
8 6 6 5 3 4 3 7 3 6 9 15 8 15 16 9 11 11 15 15 15 17 14 14 13 11 10 11 11 11 10 11 7 6 7 8 9 11 11 10 12 12 13 13 14 14 12 14 14 16 17 17 16 16 15 15 15 14 13 13 13 12 11 11 9 10 9 8 7 6 6 5 5 4 4 3 4 5 6 7 7 7 7 8 8 8 8 8 8 8 9 9 9 9 10 10 10
2 1 7 4 5 5 9 4 8 8 11 9 16 23 17 16 12 6 13 14 16 15 13 11 11 10 12 12 13 11 9 8 9 11 10 10 11 12 12 12 12 11 12 11 11 11 11 12 13 15 17 15 15 13 13 12 13 10 10 12 13 12 10 10 9 9 9 9 9 7 7 6 5 5 5 5 6 6 6 6 6 7 7 8 8 8 8 8 8 8 8 9 9 9 10 11 10
2 4 5 1 3 5 7 9 3 4 12 10 20 21 19 4 5 12 15 17 15 14 12 10 14 13 13 12 12 12 11 12 12 12 12 12 11 12 13 13 14 14 13 12 12 11 14 13 14 14 13 12 14 15 14 14 13 11 11 11 11 11 11 11 10 10 9 9 9 8 8 7 7 6 6 6 6 6 6 7 6 7 8 8 8 8 8 8 8 8 8 8 9 9 10 11 11
6 6 8 5 4 2 4 3 8 7 8 10 11 16 18 4 9 11 14 14 13 12 12 10 10 12 11 12 13 12 12 11 13 13 13 13 11 10 11 10 9 9 9 10 12 14 13 13 14 16 17 16 16 15 14 13 12 12 14 14 13 12 12 11 11 10 9 9 8 8 8 7 6 7 6 6 7 7 7 7 8 8 8 8 8 8 7 7 8 9 9 9 10 10 11 11 11
14 16 15 16 10 7 7 10 4 3 5 8 10 15 21 5 7 7 5 1 6 7 8 8 8 11 11 11 12 13 12 11 11 11 12 11 10 7 8 8 8 9 11 12 12 12 14 16 15 15 16 15 16 15 14 14 12 12 14 14 14 12 12 10 11 11 10 9 8 8 8 7 7 7 6 7 7 6 7 8 8 9 9 9 9 9 8 7 8 9 9 7 8 10 11 12 11
Wind_Direction
228 213 215 243 252 259 277 217 250 183 236 245 241 214 111 161 102 187 189 142 213 174 173 129 86 163 211 316 343 317 19 307 17 271 29 64 124 68 64 63 83 92 89 69 72 50 59 46 41 51 50 50 53 56 56 57 57 56 55 52 52 53 53 53 49 53 53 48 46 51 54 49 48 46 48 48 45 47 46 39 37 36 32 28 23 25 24 20 17 13 11 10 16 14 8 9 8
225 203 225 239 244 260 194 204 272 232 217 247 195 218 127 140 180 203 187 189 213 148 145 158 182 179 21 313 311 310 242 55 35 79 95 110 138 108 86 48 61 84 76 71 66 63 60 48 39 49 54 57 59 60 61 61 64 62 60 57 57 60 57 58 56 56 55 53 47 45 48 48 48 46 44 44 41 40 44 41 34 34 33 28 23 21 22 21 21 18 13 10 16 19 16 14 13
208 220 205 229 235 246 331 211 258 256 261 263 128 130 119 166 200 190 192 184 93 101 137 113 125 211 221 262 247 232 125 95 104 94 96 143 158 131 110 81 77 77 73 58 58 57 58 44 40 51 59 62 64 65 65 67 68 65 64 61 62 64 63 63 63 61 60 59 57 56 54 54 52 51 49 47 45 40 38 41 36 33 32 28 21 20 19 22 22 23 19 17 19 27 19 15 12
276 259 271 204 216 214 243 210 257 283 277 309 226 125 169 187 184 157 70 80 97 117 148 146 189 45 255 208 243 18 264 135 81 121 130 183 44 122 114 107 122 86 87 85 69 67 47 44 42 53 57 62 64 65 67 68 67 67 65 67 67 70 64 63 62 61 60 59 59 58 56 54 52 50 47 46 45 44 41 38 36 34 32 29 26 21 18 22 27 27 26 24 25 27 16 12 13
258 228 271 261 281 212 251 247 275 280 269 357 27 144 161 190 160 125 97 96 105 142 175 174 207 110 315 310 360 261 71 78 113 56 105 85 115 105 120 128 132 120 106 85 83 78 68 42 46 51 59 64 65 66 68 68 68 67 67 68 68 67 65 63 63 63 61 60 59 57 55 53 50 47 45 43 42 43 42 39 37 35 32 30 27 23 21 22 26 27 23 22 23 22 16 10 11
253 244 207 265 274 5 273 258 229 236 280 354 308 93 169 165 165 135 126 121 107 123 352 182 256 143 200 220 287 298 58 231 105 100 131 120 110 125 122 162 125 114 109 92 70 71 60 44 52 55 59 61 65 67 67 68 68 67 68 67 68 69 67 65 64 64 63 62 60 59 56 54 52 48 45 42 40 39 39 39 37 35 33 30 27 25 21 19 20 21 21 21 21 20 17 14 13
225 209 182 228 241 219 256 253 265 272 78 328 344 22 170 159 136 136 135 130 138 156 151 207 127 117 233 134 188 74 90 76 181 92 22 125 123 123 143 129 127 114 113 106 96 82 51 46 51 55 60 61 62 64 65 66 66 66 66 66 67 68 68 67 66 65 65 63 62 60 58 57 55 51 48 45 43 40 38 36 36 33 32 29 28 25 21 19 18 18 17 16 19 17 16 14 13
284 273 154 221 208 200 233 254 268 275 71 9 66 329 66 161 140 170 162 188 172 198 182 211 218 260 1 155 247 95 103 46 81 100 109 128 123 125 148 136 133 125 116 105 90 83 66 42 50 53 56 63 67 66 66 64 63 65 65 66 67 68 68 68 67 67 66 65 65 64 62 60 57 55 51 49 46 44 41 39 36 33 30 29 28 26 22 18 18 17 16 15 17 14 14 12 9
226 256 44 270 249 197 256 255 267 166 306 154 153 62 354 150 179 182 178 199 95 204 156 186 202 199 127 164 238 124 134 123 120 116 121 126 136 141 146 157 134 112 103 99 98 93 79 48 47 54 58 61 64 67 69 67 67 66 65 65 64 64 65 65 66 67 66 65 64 64 63 61 60 56 54 51 47 45 43 40 37 33 30 29 27 24 21 17 15 15 15 14 14 12 11 9 7
216 240 197 248 295 253 243 248 241 260 242 125 192 164 180 171 193 208 191 199 196 179 172 183 190 231 111 267 164 168 163 146 132 135 138 140 140 143 128 109 120 131 120 106 95 92 87 69 54 52 56 62 63 65 67 69 69 68 68 66 65 63 62 62 63 63 63 64 64 63 62 61 60 58 57 54 51 47 44 41 38 34 31 28 25 23 20 15 12 11 9 9 8 6 4 360 360
238 187 288 272 238 254 251 262 222 140 208 154 190 145 179 181 201 206 213 216 165 196 121 147 206 234 255 257 293 59 120 149 156 153 150 145 147 149 142 124 123 128 111 96 104 117 115 96 71 57 58 59 62 64 65 68 69 68 68 67 67 66 63 62 62 60 59 60 60 61 61 61 60 60 58 55 52 48 44 42 40 38 34 30 26 25 20 16 13 8 7 4 1 358 355 352 349
252 216 181 255 262 266 303 315 320 321 125 199 217 169 174 184 192 207 208 215 186 199 183 168 225 239 233 254 191 152 137 158 168 146 146 145 150 149 144 140 125 109 109 114 113 109 116 120 106 84 69 63 65 64 65 65 67 67 66 66 66 67 65 64 61 59 58 57 57 56 55 54 54 54 54 53 50 46 43 39 38 36 34 31 28 24 22 20 16 12 7 3 359 355 350 346 343
261 313 244 257 276 294 318 297 287 331 280 226 209 165 159 185 197 208 212 222 204 211 215 189 73 254 249 242 76 146 169 167 161 149 148 158 145 142 146 127 127 115 107 117 119 111 112 113 113 107 101 95 72 63 62 64 66 68 66 66 65 65 66 64 62 61 58 57 53 51 51 49 49 48 47 46 45 41 39 35 32 32 31 29 26 23 21 18 14 11 7 2 359 355 348 342 339
250 280 292 273 298 277 280 286 295 282 277 115 132 141 178 190 206 215 219 220 219 222 42 177 182 215 263 289 168 177 184 163 153 148 157 153 147 148 144 132 129 131 137 144 136 133 138 138 130 142 158 140 119 97 66 57 65 66 65 63 63 63 62 60 59 58 56 54 50 49 50 50 47 44 43 41 39 35 30 28 24 26 23 21 20 18 18 16 12 9 4 359 355 350 343 337 333
255 309 261 263 284 282 257 265 309 316 300 110 117 163 181 210 214 214 222 227 222 66 110 80 181 147 283 205 209 172 158 162 149 153 150 146 147 147 145 145 148 150 158 160 146 159 153 159 150 147 147 133 130 106 102 73 64 70 70 68 65 64 63 60 59 55 51 50 48 50 62 78 73 57 52 52 49 45 32 27 23 24 22 18 12 10 10 8 5 2 359 356 353 348 340 334 326
271 274 245 267 265 274 165 248 236 269 284 99 136 186 196 164 203 216 225 307 66 283 158 192 202 227 359 273 75 78 144 148 148 149 147 147 150 149 155 166 170 159 163 168 166 168 168 165 167 158 150 139 118 105 103 99 80 75 72 70 68 66 63 64 64 61 66 46 51 41 348 75 77 75 49 54 50 49 43 25 19 20 21 17 11 8 7 3 359 354 353 350 348 345 340 331 318
247 259 250 237 260 245 203 262 161 281 46 104 140 174 202 208 174 235 30 281 257 192 195 221 193 234 269 60 107 117 138 140 147 149 152 156 163 169 178 182 176 174 171 182 184 176 175 176 177 159 144 132 119 114 106 103 118 134 104 91 82 65 64 64 58 67 73 78 30 31 206 43 56 42 40 20 27 29 47 17 11 11 12 10 6 3 4 5 359 353 349 345 341 338 332 317 306
220 223 240 258 264 262 341 267 269 16 294 128 180 193 219 224 156 196 147 241 236 249 218 229 219 216 211 121 135 142 141 151 160 162 172 171 178 182 187 190 184 187 181 184 189 178 179 178 175 165 148 140 134 128 132 142 138 151 109 111 82 88 58 58 57 37 43 31 12 36 42 43 35 47 32 19 10 11 26 14 4 4 6 4 0 355 357 358 356 353 353 348 339 333 316 326 342
224 251 255 270 286 355 334 296 293 283 275 306 205 195 219 253 159 159 204 224 216 233 236 221 225 222 175 147 152 156 160 166 173 182 179 183 187 190 189 188 193 188 186 185 185 183 184 174 181 167 159 147 141 137 149 150 163 144 140 129 137 109 81 50 48 44 33 27 19 27 44 38 20 50 34 356 330 302 51 359 1 358 3 4 357 347 355 358 350 351 351 348 341 349 343 344 346
231 264 258 260 298 293 269 260 264 270 301 254 242 216 222 232 229 130 225 248 222 226 233 214 225 227 208 175 166 171 174 180 185 189 191 193 195 196 194 193 194 197 188 186 177 183 181 177 179 164 158 158 156 152 164 168 166 163 162 158 140 144 120 105 74 45 41 28 16 27 40 29 11 37 96 199 305 11 18 11 4 358 8 10 356 348 355 360 346 353 351 348 346 354 348 342 340
117 230 246 291 14 306 304 217 261 275 283 263 262 143 233 228 202 177 234 242 247 245 234 234 218 226 218 179 175 176 183 186 190 196 199 200 201 204 204 200 196 192 188 178 175 181 181 179 170 164 165 164 174 157 175 171 168 170 161 167 152 145 152 119 104 83 56 34 22 42 36 33 28 38 26 18 15 15 12 7 5 6 5 360 358 356 358 350 350 350 351 350 350 346 343 338 336
327 243 267 297 289 280 318 45 57 326 350 279 253 221 254 143 213 221 231 241 252 253 257 229 237 225 236 165 180 180 186 191 194 197 203 202 201 203 203 202 197 193 181 185 181 176 181 177 172 166 170 170 175 172 180 145 178 178 171 169 166 152 137 121 114 107 98 48 48 16 55 57 38 48 31 26 15 17 14 7 1 5 358 358 359 353 358 350 347 352 351 350 348 343 338 333 331
248 246 243 256 270 267 60 291 95 192 237 236 237 248 275 202 244 221 230 235 244 70 42 27 247 264 351 158 166 182 190 195 197 200 201 204 206 206 205 200 195 192 185 189 179 178 177 177 174 168 172 171 177 180 165 168 192 176 172 167 177 157 153 156 121 132 86 71 39 50 40 50 53 43 35 28 24 17 13 6 358 359 359 358 356 351 354 350 346 348 350 347 341 340 337 334 326
246 275 315 260 238 242 271 264 113 221 240 243 272 19 251 242 253 248 239 237 245 248 123 164 132 115 154 160 173 185 192 197 201 203 201 204 203 203 202 201 198 191 184 186 182 177 176 176 173 170 174 172 173 179 183 179 181 173 153 139 204 104 163 141 136 94 130 105 62 45 22 68 56 56 37 32 20 19 10 4 356 360 358 357 355 348 353 348 343 344 342 342 340 336 336 331 333
234 249 269 275 250 254 251 231 226 225 238 250 289 259 247 246 262 297 252 248 247 247 233 180 171 180 187 192 187 193 198 202 205 205 205 209 207 207 205 207 200 189 189 187 180 179 176 174 174 178 173 176 174 178 192 179 171 173 167 177 154 159 170 148 121 153 141 112 91 74 39 73 65 64 47 31 13 18 5 4 356 3 353 357 355 349 353 346 341 339 337 338 334 331 329 328 330
215 259 308 269 258 256 243 243 240 233 241 207 231 244 252 256 338 268 259 256 245 245 244 226 202 204 207 208 203 197 200 203 203 203 205 203 204 203 205 203 198 200 194 186 179 181 173 173 178 182 175 178 173 179 188 179 173 171 173 174 145 176 147 130 168 150 129 128 110 87 71 58 59 47 42 18 15 7 1 1 359 1 350 356 354 348 349 342 335 329 329 329 326 325 322 321 320
359 301 291 279 271 272 242 243 251 226 238 201 227 250 253 133 179 270 242 262 238 232 231 226 217 225 222 217 213 207 205 205 202 201 199 202 203 205 203 201 204 203 189 189 182 179 173 173 180 182 177 176 172 180 183 183 174 174 174 165 168 163 148 161 168 146 130 110 102 90 82 60 61 55 41 24 3 360 359 3 355 354 348 354 353 342 339 329 319 314 317 316 318 314 311 315 314
300 323 293 270 256 247 242 234 241 198 247 217 230 256 263 210 210 249 229 133 174 194 209 213 216 229 226 221 216 212 212 210 202 196 200 197 202 201 199 199 200 196 191 191 182 177 171 177 177 180 178 173 174 183 178 181 177 172 169 175 161 149 159 168 150 144 135 114 103 90 75 69 61 81 58 38 360 352 5 358 348 351 345 350 344 337 326 315 305 304 306 306 301 300 308 305 307
304 304 291 280 276 253 227 225 224 199 225 149 176 275 242 212 232 240 234 142 173 194 211 213 219 225 224 222 216 211 212 205 199 200 206 204 200 195 201 198 194 193 195 188 181 176 176 175 176 178 177 169 184 182 173 181 174 165 179 177 151 152 168 162 152 140 134 121 111 95 83 83 85 61 55 40 359 3 6 349 349 341 340 349 333 323 317 313 310 312 313 312 306 312 303 307 309
285 257 261 285 272 262 245 192 167 170 201 138 182 274 269 201 224 246 195 168 174 209 223 225 227 223 222 218 215 214 209 204 203 205 206 206 201 199 203 198 194 191 187 184 179 180 172 170 171 171 178 174 184 182 177 176 172 176 177 173 152 170 162 153 146 152 145 140 126 118 112 91 73 70 36 28 14 8 351 343 340 333 342 343 324 322 325 318 311 315 321 320 319 313 315 314 314
254 284 214 261 279 270 133 172 166 201 139 169 184 255 274 277 208 225 154 174 180 215 221 228 229 222 217 214 213 214 211 207 208 206 207 207 205 202 203 197 193 191 182 181 183 177 169 168 167 167 176 173 179 182 179 177 170 173 178 171 164 177 149 154 158 155 165 154 145 131 117 102 94 69 43 25 12 356 337 332 333 332 347 328 323 325 315 312 312 323 325 322 317 315 315 314 311
229 252 254 223 229 269 169 187 174 200 141 193 183 246 259 278 293 144 149 170 200 228 233 233 235 230 215 210 210 212 214 208 212 210 207 209 206 202 200 198 191 190 187 180 175 172 172 167 166 163 170 173 174 176 176 168 169 172 179 169 150 167 155 156 160 166 164 150 139 129 124 115 84 84 66 43 349 336 322 323 323 339 335 327 323 314 312 316 324 322 319 316 318 315 315 313 312
225 229 263 269 257 263 249 188 203 251 121 189 198 251 283 276 94 128 136 174 200 231 245 246 250 249 234 216 208 209 210 211 208 208 207 209 207 201 197 196 191 191 186 178 174 172 172 167 167 167 174 174 174 173 172 170 175 175 170 172 144 163 161 164 162 165 162 158 149 148 132 122 122 115 108 112 284 311 327 324 321 332 332 321 311 311 314 322 323 317 310 315 313 312 312 310 312
256 214 250 268 271 277 267 105 246 189 204 202 216 243 247 260 271 225 179 205 200 233 256 257 258 254 246 234 215 204 205 205 206 199 205 205 201 199 194 194 190 187 186 180 174 174 174 169 172 175 174 174 174 172 173 173 172 169 169 161 166 164 167 160 167 166 174 167 149 153 129 148 145 133 136 138 298 316 313 320 320 321 318 313 307 312 316 314 308 307 311 315 316 314 313 316 312
284 294 266 260 263 253 261 268 156 175 201 241 228 229 251 259 264 271 261 212 219 240 252 260 260 257 252 242 232 219 206 207 207 195 200 199 195 193 192 190 188 186 186 181 173 174 171 168 171 175 175 175 172 168 170 171 170 173 169 162 162 166 166 181 166 176 173 162 167 128 149 181 151 153 146 163 325 342 334 323 316 315 310 300 305 311 313 309 305 315 312 308 308 308 304 301 300
280 289 284 290 284 278 270 292 130 187 189 225 234 249 258 259 257 263 265 266 255 245 252 261 259 259 257 250 244 227 217 214 200 198 192 189 189 186 185 185 185 184 184 181 177 174 174 167 170 173 177 174 170 169 169 173 173 177 173 171 168 182 180 170 181 185 170 174 149 160 155 185 147 146 142 27 338 333 328 312 304 299 289 291 302 308 307 310 316 311 306 309 307 302 295 294 300
286 285 279 272 274 273 271 270 151 179 263 246 248 254 259 262 264 265 268 272 273 272 265 261 258 261 256 251 246 232 219 209 186 192 184 184 180 179 179 180 182 181 184 181 180 179 178 172 170 175 176 175 174 173 175 179 180 180 181 182 182 177 181 172 176 181 175 179 152 165 160 178 150 170 183 324 332 320 293 287 286 287 283 294 296 295 303 304 302 298 298 300 301 301 300 302 303
269 272 274 275 268 269 268 277 141 182 224 269 264 269 264 264 265 264 266 267 264 266 266 259 265 264 260 254 248 237 222 161 169 180 180 173 171 173 175 179 179 180 187 184 184 181 179 175 175 173 175 178 182 179 177 184 185 187 178 180 179 166 169 176 183 179 180 161 160 171 174 163 175 187 188 275 304 285 283 286 285 287 297 294 299 295 290 290 289 289 296 299 296 299 297 302 301
266 256 263 270 263 267 273 133 151 149 200 267 272 273 272 271 268 266 259 256 255 247 252 267 272 272 271 263 255 238 181 175 178 186 176 173 170 173 176 181 187 187 182 186 183 178 180 178 179 177 178 180 183 180 178 185 183 181 184 172 176 157 163 160 152 138 149 160 168 174 178 179 180 188 191 211 251 266 267 272 276 287 297 298 296 296 294 293 293 293 293 293 303 295 288 286 294
249 243 238 242 258 279 274 134 154 199 214 288 303 290 277 271 256 250 247 249 249 248 252 259 260 265 263 263 261 217 184 184 189 188 182 178 174 176 180 185 185 184 184 186 185 183 182 184 183 180 180 180 180 181 181 179 170 145 129 139 138 143 161 151 161 174 180 181 193 188 189 191 184 188 185 209 230 234 251 268 278 282 288 293 290 291 291 287 285 286 290 290 290 293 295 298 300
223 231 244 253 254 249 254 305 294 250 229 256 288 273 268 249 249 236 235 236 243 252 255 255 260 252 259 271 260 218 195 189 193 187 183 180 181 187 188 184 180 186 188 186 185 185 184 185 182 180 178 179 180 176 176 163 142 143 134 123 127 135 109 165 185 200 196 192 196 190 192 180 179 179 194 215 230 244 251 257 268 283 286 286 285 280 278 277 283 285 282 278 279 288 294 293 294
246 221 227 242 257 268 274 313 350 311 291 152 323 308 266 251 240 235 165 119 207 245 241 246 240 253 253 251 231 197 193 210 198 188 183 183 186 184 185 185 187 188 191 189 186 186 183 183 181 180 178 178 181 174 172 161 163 165 166 170 177 186 192 190 201 196 183 189 192 184 173 164 170 180 200 217 223 242 244 247 257 270 276 276 273 272 276 280 276 273 273 276 277 275 283 293 289
247 251 249 249 255 266 272 282 339 280 268 102 318 331 292 144 233 214 195 179 184 178 212 247 239 225 238 253 198 189 194 201 199 184 175 180 184 181 185 190 191 189 191 183 183 185 185 181 181 181 179 179 180 174 173 168 171 181 183 186 188 187 190 193 191 184 179 164 161 160 165 174 182 195 202 212 224 228 241 251 256 260 268 271 272 271 269 271 273 272 272 268 271 278 278 283 290
247 59 303 127 255 254 257 264 242 266 291 283 166 241 282 282 210 223 221 235 200 210 244 253 249 224 212 234 185 178 189 189 181 183 182 184 181 183 188 189 190 191 183 180 182 185 186 182 181 182 180 180 177 173 175 178 178 183 183 187 191 190 191 178 168 156 154 151 154 163 180 192 192 196 207 212 218 226 234 250 252 258 262 267 266 265 266 267 271 272 265 265 267 266 270 273 287
256 47 20 54 325 268 228 236 263 271 302 275 206 191 270 262 216 196 205 224 219 226 238 248 253 253 238 223 195 177 187 185 175 176 183 183 185 186 187 188 190 185 182 182 181 183 183 182 182 181 183 181 176 174 175 181 183 182 180 181 185 189 180 171 153 158 159 167 175 177 190 204 204 209 211 215 215 226 233 248 254 257 262 265 263 261 262 263 267 269 268 267 266 271 270 275 278
132 135 83 81 86 88 213 256 260 279 273 261 201 173 242 280 153 183 193 204 207 220 230 240 244 244 241 216 171 177 178 174 179 182 181 182 182 184 187 182 181 186 182 180 177 178 181 182 183 184 187 182 176 176 175 178 182 179 180 184 183 181 177 177 175 169 175 175 180 187 191 203 209 206 204 206 212 219 228 238 245 254 261 260 259 260 263 266 266 264 263 264 268 271 270 269 268
122 139 143 113 165 200 187 227 257 293 254 249 205 189 193 276 189 156 152 195 198 205 221 238 243 233 226 174 170 168 173 171 173 175 176 176 176 177 178 184 183 178 178 178 177 180 181 184 185 187 188 182 176 177 175 179 181 183 184 185 183 181 175 176 174 180 177 177 187 191 197 202 199 201 198 202 205 211 220 230 243 255 260 264 263 264 262 267 271 274 275 273 270 268 269 269 270
175 145 208 218 228 199 238 213 178 248 266 234 177 191 190 241 127 173 192 186 193 178 210 246 262 252 230 165 171 171 169 170 169 166 165 168 167 176 177 185 182 179 174 180 180 181 183 186 185 187 188 185 179 177 177 181 180 184 183 183 183 183 176 176 182 182 183 187 189 193 194 200 205 201 199 204 209 205 213 234 251 262 261 259 259 261 270 275 278 278 276 274 274 274 272 272 268
215 195 183 221 249 178 230 163 222 209 248 95 150 184 221 230 238 236 205 191 195 181 231 266 269 255 235 173 157 165 162 156 165 166 162 170 176 177 184 185 180 181 182 183 183 182 184 187 188 188 191 186 181 178 178 180 178 182 181 181 183 181 184 180 184 183 184 187 186 194 197 205 202 205 202 204 202 205 230 251 261 258 261 263 268 273 274 274 274 272 270 272 270 269 266 266 267
189 196 190 198 250 238 254 246 239 263 250 142 141 151 245 283 278 228 240 215 201 208 225 239 243 248 251 183 142 149 167 167 170 168 171 178 180 183 184 184 185 184 184 184 185 184 185 187 189 191 193 187 182 179 179 179 181 179 179 179 180 181 184 181 179 182 182 185 189 194 201 207 208 209 207 215 216 211 231 250 260 261 262 264 266 267 268 270 269 269 270 269 271 270 270 267 266
201 200 181 208 216 229 256 246 249 249 281 126 198 122 230 117 213 184 215 214 207 219 232 224 228 234 136 72 84 127 179 183 172 171 179 181 185 183 182 186 188 188 185 185 187 188 185 188 190 192 190 188 183 179 178 179 179 177 177 180 178 177 177 176 178 178 179 183 187 190 196 199 207 210 214 210 200 219 243 253 254 262 264 265 268 269 269 271 271 271 271 270 271 272 272 270 267
191 197 219 250 234 225 241 261 291 324 330 288 171 219 251 236 88 136 224 192 195 203 225 218 221 218 158 148 183 190 191 192 186 186 186 188 184 183 181 186 191 187 186 185 187 187 188 191 190 191 191 184 183 179 179 179 177 175 177 176 177 173 171 172 174 173 176 179 185 187 193 197 201 211 216 221 227 235 246 253 258 259 262 263 266 266 269 271 273 271 272 272 270 270 270 268 268
163 161 207 214 24 232 261 283 273 77 286 260 181 256 250 256 260 169 169 174 177 202 219 215 223 219 202 207 213 202 197 194 192 200 193 186 181 189 190 187 187 185 185 189 190 189 189 183 186 188 188 184 182 179 176 177 174 174 176 174 173 171 170 173 175 174 175 175 180 185 187 194 200 211 218 223 239 242 247 250 257 262 264 264 261 263 264 265 268 269 269 270 270 271 271 269 268
109 215 214 63 347 22 249 261 247 247 257 274 271 257 276 264 290 148 169 181 187 213 214 219 221 220 214 223 224 214 205 202 196 203 206 191 189 193 189 190 191 191 190 189 190 189 187 188 184 184 187 182 179 174 176 175 175 173 171 172 172 169 169 173 173 171 171 171 176 180 184 188 198 203 206 217 228 240 246 248 251 255 258 258 260 263 265 267 268 268 269 269 269 271 271 269 267
265 238 344 188 204 203 212 242 246 259 255 270 270 271 264 255 248 150 191 181 208 212 211 217 218 216 219 224 230 229 209 199 201 203 199 198 197 197 196 193 192 195 193 190 185 181 183 183 183 186 186 180 173 171 173 172 170 167 168 169 168 167 169 171 171 167 168 176 179 182 184 187 188 195 203 217 227 234 237 245 247 255 258 259 263 264 266 266 265 268 269 272 271 270 269 271 269
201 312 258 23 329 243 192 198 247 232 263 269 276 283 273 191 243 172 181 184 210 205 205 207 215 213 216 221 230 232 218 214 214 210 205 200 198 198 196 189 190 192 188 186 180 180 184 184 181 186 183 173 170 171 173 172 171 162 161 162 166 166 167 169 170 168 176 179 181 179 181 186 192 194 207 213 224 232 242 244 248 254 257 259 260 260 259 262 266 266 268 269 270 270 271 271 274
193 222 232 190 211 11 351 299 232 221 242 245 270 283 274 283 225 153 167 192 196 195 198 200 208 217 215 221 225 228 233 219 216 222 215 205 197 192 193 190 189 183 183 179 182 186 185 183 184 184 183 177 176 174 171 174 166 166 162 167 166 165 167 167 167 173 177 178 176 178 184 186 186 199 199 210 219 229 234 239 246 250 253 258 259 261 262 263 262 265 265 267 270 270 272 273 273
187 184 202 198 174 198 214 246 198 234 226 237 250 255 272 255 105 131 84 186 177 199 214 195 205 213 216 221 226 230 229 230 228 225 221 217 202 175 175 178 180 179 183 185 185 180 184 189 186 184 185 182 177 176 175 171 167 166 168 167 165 164 165 167 168 173 178 173 175 180 180 182 192 197 199 211 218 225 231 239 243 247 252 255 256 256 258 258 259 265 267 267 269 272 271 272 273